Time,TemperatureF,DewpointF,PressureIn,WindDirection,WindDirectionDegrees,WindSpeedMPH,WindSpeedGustMPH,Humidity,HourlyPrecipIn,Conditions,Clouds,dailyrainin,SoftwareType,DateUTC
2013-12-16 00:00:00,43.9,33.7,30.27,SE,135,0.0,0.0,67,0.00,,,0.00,WeatherCatV1.23B14,2013-12-16 08:00:00,
2013-12-16 00:05:00,43.9,33.7,30.27,SE,135,0.0,0.0,67,0.00,,,0.00,WeatherCatV1.23B14,2013-12-16 08:05:00,
2013-12-16 00:10:00,43.9,33.7,30.27,SE,135,0.0,0.0,67,0.00,,,0.00,WeatherCatV1.23B14,2013-12-16 08:10:00,
2013-12-16 00:15:00,42.4,33.3,30.26,SE,135,0.0,0.0,70,0.00,,,0.00,WeatherCatV1.23B14,2013-12-16 08:15:00,
2013-12-16 00:20:00,42.4,33.3,30.26,SE,135,0.0,0.0,70,0.00,,,0.00,WeatherCatV1.23B14,2013-12-16 08:20:00,
2013-12-16 00:25:00,42.4,33.3,30.26,SE,135,0.0,0.0,70,0.00,,,0.00,WeatherCatV1.23B14,2013-12-16 08:25:00,
2013-12-16 00:30:00,42.4,33.3,30.26,SE,135,0.0,0.0,70,0.00,,,0.00,WeatherCatV1.23B14,2013-12-16 08:30:00,
2013-12-16 00:35:00,42.4,33.3,30.26,SE,135,0.0,0.0,70,0.00,,,0.00,WeatherCatV1.23B14,2013-12-16 08:35:00,
2013-12-16 00:40:00,42.4,33.3,30.26,SE,135,0.0,0.0,70,0.00,,,0.00,WeatherCatV1.23B14,2013-12-16 08:40:00,
2013-12-16 00:45:00,42.4,33.3,30.26,SE,135,0.0,0.0,70,0.00,,,0.00,WeatherCatV1.23B14,2013-12-16 08:45:00,
2013-12-16 00:50:00,42.4,33.3,30.26,SE,135,0.0,0.0,70,0.00,,,0.00,WeatherCatV1.23B14,2013-12-16 08:50:00,
2013-12-16 00:55:00,42.4,33.3,30.26,SE,135,0.0,0.0,70,0.00,,,0.00,WeatherCatV1.23B14,2013-12-16 08:55:00,
2013-12-16 01:00:00,42.4,33.3,30.26,SE,135,0.0,0.0,70,0.00,,,0.00,WeatherCatV1.23B14,2013-12-16 09:00:00,
2013-12-16 01:05:00,42.4,33.3,30.26,SE,135,0.0,0.0,70,0.00,,,0.00,WeatherCatV1.23B14,2013-12-16 09:05:00,
2013-12-16 01:10:00,42.4,33.3,30.26,SE,135,0.0,0.0,70,0.00,,,0.00,WeatherCatV1.23B14,2013-12-16 09:10:00,
2013-12-16 01:15:00,43.5,33.7,30.24,NNE,22,0.0,1.0,68,0.00,,,0.00,WeatherCatV1.23B14,2013-12-16 09:15:00,
2013-12-16 01:20:00,43.5,33.7,30.24,NNE,22,0.0,1.0,68,0.00,,,0.00,WeatherCatV1.23B14,2013-12-16 09:20:00,
2013-12-16 01:25:00,43.5,33.7,30.24,NNE,22,0.0,1.0,68,0.00,,,0.00,WeatherCatV1.23B14,2013-12-16 09:25:00,
2013-12-16 01:30:00,43.5,33.7,30.24,NNE,22,0.0,1.0,68,0.00,,,0.00,WeatherCatV1.23B14,2013-12-16 09:30:00,
2013-12-16 01:35:00,43.5,33.7,30.24,NNE,22,0.0,1.0,68,0.00,,,0.00,WeatherCatV1.23B14,2013-12-16 09:35:00,
2013-12-16 01:40:00,43.5,33.7,30.24,NNE,22,0.0,1.0,68,0.00,,,0.00,WeatherCatV1.23B14,2013-12-16 09:40:00,
2013-12-16 01:45:00,43.5,33.7,30.24,NNE,22,0.0,1.0,68,0.00,,,0.00,WeatherCatV1.23B14,2013-12-16 09:45:00,
2013-12-16 01:50:00,43.5,33.7,30.24,NNE,22,0.0,1.0,68,0.00,,,0.00,WeatherCatV1.23B14,2013-12-16 09:50:00,
2013-12-16 01:55:00,43.5,33.7,30.24,NNE,22,0.0,1.0,68,0.00,,,0.00,WeatherCatV1.23B14,2013-12-16 09:55:00,
2013-12-16 02:00:00,43.5,33.7,30.24,NNE,22,0.0,1.0,68,0.00,,,0.00,WeatherCatV1.23B14,2013-12-16 10:00:00,
2013-12-16 02:05:00,43.5,33.7,30.24,NNE,22,0.0,1.0,68,0.00,,,0.00,WeatherCatV1.23B14,2013-12-16 10:05:00,
2013-12-16 02:10:00,43.5,33.7,30.24,NNE,22,0.0,1.0,68,0.00,,,0.00,WeatherCatV1.23B14,2013-12-16 10:10:00,
2013-12-16 02:15:00,44.0,33.4,30.24,NNE,22,0.0,1.0,66,0.00,,,0.00,WeatherCatV1.23B14,2013-12-16 10:15:00,
2013-12-16 02:20:00,44.0,33.4,30.24,NNE,22,0.0,1.0,66,0.00,,,0.00,WeatherCatV1.23B14,2013-12-16 10:20:00,
2013-12-16 02:25:00,44.0,33.4,30.24,NNE,22,0.0,1.0,66,0.00,,,0.00,WeatherCatV1.23B14,2013-12-16 10:25:00,
2013-12-16 02:30:00,44.0,33.4,30.24,NNE,22,0.0,1.0,66,0.00,,,0.00,WeatherCatV1.23B14,2013-12-16 10:30:00,
2013-12-16 02:35:00,44.0,33.4,30.24,NNE,22,0.0,1.0,66,0.00,,,0.00,WeatherCatV1.23B14,2013-12-16 10:35:00,
2013-12-16 02:40:00,44.0,33.4,30.24,NNE,22,0.0,1.0,66,0.00,,,0.00,WeatherCatV1.23B14,2013-12-16 10:40:00,
2013-12-16 02:45:00,44.0,33.4,30.24,NNE,22,0.0,1.0,66,0.00,,,0.00,WeatherCatV1.23B14,2013-12-16 10:45:00,
2013-12-16 02:50:00,44.0,33.4,30.24,NNE,22,0.0,1.0,66,0.00,,,0.00,WeatherCatV1.23B14,2013-12-16 10:50:00,
2013-12-16 02:55:00,44.0,33.4,30.24,NNE,22,0.0,1.0,66,0.00,,,0.00,WeatherCatV1.23B14,2013-12-16 10:55:00,
2013-12-16 03:00:00,44.0,33.4,30.24,NNE,22,0.0,1.0,66,0.00,,,0.00,WeatherCatV1.23B14,2013-12-16 11:00:00,
2013-12-16 03:05:00,44.0,33.4,30.24,NNE,22,0.0,1.0,66,0.00,,,0.00,WeatherCatV1.23B14,2013-12-16 11:05:00,
2013-12-16 03:10:00,44.0,33.4,30.24,NNE,22,0.0,1.0,66,0.00,,,0.00,WeatherCatV1.23B14,2013-12-16 11:10:00,
2013-12-16 03:15:00,45.3,32.2,30.24,NNE,22,0.0,1.0,60,0.00,,,0.00,WeatherCatV1.23B14,2013-12-16 11:15:00,
2013-12-16 03:20:00,45.3,32.2,30.24,NNE,22,0.0,1.0,60,0.00,,,0.00,WeatherCatV1.23B14,2013-12-16 11:20:00,
2013-12-16 03:25:00,45.3,32.2,30.24,NNE,22,0.0,1.0,60,0.00,,,0.00,WeatherCatV1.23B14,2013-12-16 11:25:00,
2013-12-16 03:30:00,45.3,32.2,30.24,NNE,22,0.0,1.0,60,0.00,,,0.00,WeatherCatV1.23B14,2013-12-16 11:30:00,
2013-12-16 03:35:00,45.3,32.2,30.24,NNE,22,0.0,1.0,60,0.00,,,0.00,WeatherCatV1.23B14,2013-12-16 11:35:00,
2013-12-16 03:40:00,45.3,32.2,30.24,NNE,22,0.0,1.0,60,0.00,,,0.00,WeatherCatV1.23B14,2013-12-16 11:40:00,
2013-12-16 03:45:00,45.3,32.2,30.24,NNE,22,0.0,1.0,60,0.00,,,0.00,WeatherCatV1.23B14,2013-12-16 11:45:00,
2013-12-16 03:50:00,45.3,32.2,30.24,NNE,22,0.0,1.0,60,0.00,,,0.00,WeatherCatV1.23B14,2013-12-16 11:50:00,
2013-12-16 03:55:00,45.3,32.2,30.24,NNE,22,0.0,1.0,60,0.00,,,0.00,WeatherCatV1.23B14,2013-12-16 11:55:00,
2013-12-16 04:00:00,45.3,32.2,30.24,NNE,22,0.0,1.0,60,0.00,,,0.00,WeatherCatV1.23B14,2013-12-16 12:00:00,
2013-12-16 04:05:00,45.3,32.2,30.24,NNE,22,0.0,1.0,60,0.00,,,0.00,WeatherCatV1.23B14,2013-12-16 12:05:00,
2013-12-16 04:10:00,45.3,32.2,30.24,NNE,22,0.0,1.0,60,0.00,,,0.00,WeatherCatV1.23B14,2013-12-16 12:10:00,
2013-12-16 04:15:00,45.0,30.7,30.22,NNE,22,0.0,1.0,57,0.00,,,0.00,WeatherCatV1.23B14,2013-12-16 12:15:00,
2013-12-16 04:20:00,45.0,30.7,30.22,NNE,22,0.0,1.0,57,0.00,,,0.00,WeatherCatV1.23B14,2013-12-16 12:20:00,
2013-12-16 04:25:00,45.0,30.7,30.22,NNE,22,0.0,1.0,57,0.00,,,0.00,WeatherCatV1.23B14,2013-12-16 12:25:00,
2013-12-16 04:30:00,45.0,30.7,30.22,NNE,22,0.0,1.0,57,0.00,,,0.00,WeatherCatV1.23B14,2013-12-16 12:30:00,
2013-12-16 04:35:00,45.0,30.7,30.22,NNE,22,0.0,1.0,57,0.00,,,0.00,WeatherCatV1.23B14,2013-12-16 12:35:00,
2013-12-16 04:40:00,45.0,30.7,30.22,NNE,22,0.0,1.0,57,0.00,,,0.00,WeatherCatV1.23B14,2013-12-16 12:40:00,
2013-12-16 04:45:00,45.0,30.7,30.22,NNE,22,0.0,1.0,57,0.00,,,0.00,WeatherCatV1.23B14,2013-12-16 12:45:00,
2013-12-16 04:50:00,45.0,30.7,30.22,NNE,22,0.0,1.0,57,0.00,,,0.00,WeatherCatV1.23B14,2013-12-16 12:50:00,
2013-12-16 04:55:00,45.0,30.7,30.22,NNE,22,0.0,1.0,57,0.00,,,0.00,WeatherCatV1.23B14,2013-12-16 12:55:00,
2013-12-16 05:00:00,45.0,30.7,30.22,NNE,22,0.0,1.0,57,0.00,,,0.00,WeatherCatV1.23B14,2013-12-16 13:00:00,
2013-12-16 05:05:00,45.0,30.7,30.22,NNE,22,0.0,1.0,57,0.00,,,0.00,WeatherCatV1.23B14,2013-12-16 13:05:00,
2013-12-16 05:10:00,45.0,30.7,30.22,NNE,22,0.0,1.0,57,0.00,,,0.00,WeatherCatV1.23B14,2013-12-16 13:10:00,
2013-12-16 05:15:00,44.3,30.0,30.21,NNE,22,0.0,1.0,57,0.00,,,0.00,WeatherCatV1.23B14,2013-12-16 13:15:00,
2013-12-16 05:20:00,44.3,30.0,30.21,NNE,22,0.0,1.0,57,0.00,,,0.00,WeatherCatV1.23B14,2013-12-16 13:20:00,
2013-12-16 05:25:00,44.3,30.0,30.21,NNE,22,0.0,1.0,57,0.00,,,0.00,WeatherCatV1.23B14,2013-12-16 13:25:00,
2013-12-16 05:30:00,44.3,30.0,30.21,NNE,22,0.0,1.0,57,0.00,,,0.00,WeatherCatV1.23B14,2013-12-16 13:30:00,
2013-12-16 05:35:00,44.3,30.0,30.21,NNE,22,0.0,1.0,57,0.00,,,0.00,WeatherCatV1.23B14,2013-12-16 13:35:00,
2013-12-16 05:40:00,44.3,30.0,30.21,NNE,22,0.0,1.0,57,0.00,,,0.00,WeatherCatV1.23B14,2013-12-16 13:40:00,
2013-12-16 05:45:00,44.3,30.0,30.21,NNE,22,0.0,1.0,57,0.00,,,0.00,WeatherCatV1.23B14,2013-12-16 13:45:00,
2013-12-16 05:50:00,44.3,30.0,30.21,NNE,22,0.0,1.0,57,0.00,,,0.00,WeatherCatV1.23B14,2013-12-16 13:50:00,
2013-12-16 05:55:00,44.3,30.0,30.21,NNE,22,0.0,1.0,57,0.00,,,0.00,WeatherCatV1.23B14,2013-12-16 13:55:00,
2013-12-16 06:00:00,44.3,30.0,30.21,NNE,22,0.0,1.0,57,0.00,,,0.00,WeatherCatV1.23B14,2013-12-16 14:00:00,
2013-12-16 06:05:00,44.3,30.0,30.21,NNE,22,0.0,1.0,57,0.00,,,0.00,WeatherCatV1.23B14,2013-12-16 14:05:00,
2013-12-16 06:10:00,44.3,30.0,30.21,NNE,22,0.0,1.0,57,0.00,,,0.00,WeatherCatV1.23B14,2013-12-16 14:10:00,
2013-12-16 06:15:00,44.5,31.1,30.21,NNE,22,0.0,1.0,59,0.00,,,0.00,WeatherCatV1.23B14,2013-12-16 14:15:00,
2013-12-16 06:20:00,44.5,31.1,30.21,NNE,22,0.0,1.0,59,0.00,,,0.00,WeatherCatV1.23B14,2013-12-16 14:20:00,
2013-12-16 06:25:00,44.5,31.1,30.21,NNE,22,0.0,1.0,59,0.00,,,0.00,WeatherCatV1.23B14,2013-12-16 14:25:00,
2013-12-16 06:30:00,44.5,31.1,30.21,NNE,22,0.0,1.0,59,0.00,,,0.00,WeatherCatV1.23B14,2013-12-16 14:30:00,
2013-12-16 06:35:00,44.5,31.1,30.21,NNE,22,0.0,1.0,59,0.00,,,0.00,WeatherCatV1.23B14,2013-12-16 14:35:00,
2013-12-16 06:40:00,44.5,31.1,30.21,NNE,22,0.0,1.0,59,0.00,,,0.00,WeatherCatV1.23B14,2013-12-16 14:40:00,
2013-12-16 06:45:00,44.5,31.1,30.21,NNE,22,0.0,1.0,59,0.00,,,0.00,WeatherCatV1.23B14,2013-12-16 14:45:00,
2013-12-16 06:50:00,44.5,31.1,30.21,NNE,22,0.0,1.0,59,0.00,,,0.00,WeatherCatV1.23B14,2013-12-16 14:50:00,
2013-12-16 06:55:00,44.5,31.1,30.21,NNE,22,0.0,1.0,59,0.00,,,0.00,WeatherCatV1.23B14,2013-12-16 14:55:00,
2013-12-16 07:00:00,44.5,31.1,30.21,NNE,22,0.0,1.0,59,0.00,,,0.00,WeatherCatV1.23B14,2013-12-16 15:00:00,
2013-12-16 07:05:00,44.5,31.1,30.21,NNE,22,0.0,1.0,59,0.00,,,0.00,WeatherCatV1.23B14,2013-12-16 15:05:00,
2013-12-16 07:10:00,44.5,31.1,30.21,NNE,22,0.0,1.0,59,0.00,,,0.00,WeatherCatV1.23B14,2013-12-16 15:10:00,
2013-12-16 07:15:00,44.9,30.6,30.21,NNE,22,0.0,1.0,57,0.00,,,0.00,WeatherCatV1.23B14,2013-12-16 15:15:00,
2013-12-16 07:20:00,44.9,30.6,30.21,NNE,22,0.0,1.0,57,0.00,,,0.00,WeatherCatV1.23B14,2013-12-16 15:20:00,
2013-12-16 07:25:00,44.9,30.6,30.21,NNE,22,0.0,1.0,57,0.00,,,0.00,WeatherCatV1.23B14,2013-12-16 15:25:00,
2013-12-16 07:30:00,44.9,30.6,30.21,NNE,22,0.0,1.0,57,0.00,,,0.00,WeatherCatV1.23B14,2013-12-16 15:30:00,
2013-12-16 07:35:00,44.9,30.6,30.21,NNE,22,0.0,1.0,57,0.00,,,0.00,WeatherCatV1.23B14,2013-12-16 15:35:00,
2013-12-16 07:40:00,44.9,30.6,30.21,NNE,22,0.0,1.0,57,0.00,,,0.00,WeatherCatV1.23B14,2013-12-16 15:40:00,
2013-12-16 07:45:00,44.9,30.6,30.21,NNE,22,0.0,1.0,57,0.00,,,0.00,WeatherCatV1.23B14,2013-12-16 15:45:00,
2013-12-16 07:50:00,44.9,30.6,30.21,NNE,22,0.0,1.0,57,0.00,,,0.00,WeatherCatV1.23B14,2013-12-16 15:50:00,
2013-12-16 07:55:00,44.9,30.6,30.21,NNE,22,0.0,1.0,57,0.00,,,0.00,WeatherCatV1.23B14,2013-12-16 15:55:00,
2013-12-16 08:00:00,44.9,30.6,30.21,NNE,22,0.0,1.0,57,0.00,,,0.00,WeatherCatV1.23B14,2013-12-16 16:00:00,
2013-12-16 08:05:00,44.9,30.6,30.21,NNE,22,0.0,1.0,57,0.00,,,0.00,WeatherCatV1.23B14,2013-12-16 16:05:00,
2013-12-16 08:10:00,44.9,30.6,30.21,NNE,22,0.0,1.0,57,0.00,,,0.00,WeatherCatV1.23B14,2013-12-16 16:10:00,
2013-12-16 08:15:00,44.9,31.0,30.22,ENE,68,0.0,1.0,58,0.00,,,0.00,WeatherCatV1.23B14,2013-12-16 16:15:00,
2013-12-16 08:20:00,44.9,31.0,30.22,ENE,68,0.0,1.0,58,0.00,,,0.00,WeatherCatV1.23B14,2013-12-16 16:20:00,
2013-12-16 08:25:00,44.9,31.0,30.22,ENE,68,0.0,1.0,58,0.00,,,0.00,WeatherCatV1.23B14,2013-12-16 16:25:00,
2013-12-16 08:30:00,44.9,31.0,30.22,ENE,68,0.0,1.0,58,0.00,,,0.00,WeatherCatV1.23B14,2013-12-16 16:30:00,
2013-12-16 08:35:00,44.9,31.0,30.22,ENE,68,0.0,1.0,58,0.00,,,0.00,WeatherCatV1.23B14,2013-12-16 16:35:00,
2013-12-16 08:40:00,44.9,31.0,30.22,ENE,68,0.0,1.0,58,0.00,,,0.00,WeatherCatV1.23B14,2013-12-16 16:40:00,
2013-12-16 08:45:00,44.9,31.0,30.22,ENE,68,0.0,1.0,58,0.00,,,0.00,WeatherCatV1.23B14,2013-12-16 16:45:00,
2013-12-16 08:50:00,44.9,31.0,30.22,ENE,68,0.0,1.0,58,0.00,,,0.00,WeatherCatV1.23B14,2013-12-16 16:50:00,
2013-12-16 08:55:00,44.9,31.0,30.22,ENE,68,0.0,1.0,58,0.00,,,0.00,WeatherCatV1.23B14,2013-12-16 16:55:00,
2013-12-16 09:00:00,44.9,31.0,30.22,ENE,68,0.0,1.0,58,0.00,,,0.00,WeatherCatV1.23B14,2013-12-16 17:00:00,
2013-12-16 09:05:00,44.9,31.0,30.22,ENE,68,0.0,1.0,58,0.00,,,0.00,WeatherCatV1.23B14,2013-12-16 17:05:00,
2013-12-16 09:10:00,44.9,31.0,30.22,ENE,68,0.0,1.0,58,0.00,,,0.00,WeatherCatV1.23B14,2013-12-16 17:10:00,
2013-12-16 09:15:00,49.3,32.9,30.23,ENE,68,0.0,0.0,53,0.00,,,0.00,WeatherCatV1.23B14,2013-12-16 17:15:00,
2013-12-16 09:20:00,49.3,32.9,30.23,ENE,68,0.0,0.0,53,0.00,,,0.00,WeatherCatV1.23B14,2013-12-16 17:20:00,
2013-12-16 09:25:00,49.3,32.9,30.23,ENE,68,0.0,0.0,53,0.00,,,0.00,WeatherCatV1.23B14,2013-12-16 17:25:00,
2013-12-16 09:30:00,49.3,32.9,30.23,ENE,68,0.0,0.0,53,0.00,,,0.00,WeatherCatV1.23B14,2013-12-16 17:30:00,
2013-12-16 09:35:00,49.3,32.9,30.23,ENE,68,0.0,0.0,53,0.00,,,0.00,WeatherCatV1.23B14,2013-12-16 17:35:00,
2013-12-16 09:40:00,49.3,32.9,30.23,ENE,68,0.0,0.0,53,0.00,,,0.00,WeatherCatV1.23B14,2013-12-16 17:40:00,
2013-12-16 09:45:00,49.3,32.9,30.23,ENE,68,0.0,0.0,53,0.00,,,0.00,WeatherCatV1.23B14,2013-12-16 17:45:00,
2013-12-16 09:50:00,49.3,32.9,30.23,ENE,68,0.0,0.0,53,0.00,,,0.00,WeatherCatV1.23B14,2013-12-16 17:50:00,
2013-12-16 09:55:00,49.3,32.9,30.23,ENE,68,0.0,0.0,53,0.00,,,0.00,WeatherCatV1.23B14,2013-12-16 17:55:00,
2013-12-16 10:00:00,49.3,32.9,30.23,ENE,68,0.0,0.0,53,0.00,,,0.00,WeatherCatV1.23B14,2013-12-16 18:00:00,
2013-12-16 10:05:00,49.3,32.9,30.23,ENE,68,0.0,0.0,53,0.00,,,0.00,WeatherCatV1.23B14,2013-12-16 18:05:00,
2013-12-16 10:10:00,49.3,32.9,30.23,ENE,68,0.0,0.0,53,0.00,,,0.00,WeatherCatV1.23B14,2013-12-16 18:10:00,
2013-12-16 10:15:00,55.8,36.4,30.23,NE,45,0.0,1.0,48,0.00,,,0.00,WeatherCatV1.23B14,2013-12-16 18:15:00,
2013-12-16 10:20:00,55.8,36.4,30.23,NE,45,0.0,1.0,48,0.00,,,0.00,WeatherCatV1.23B14,2013-12-16 18:20:00,
2013-12-16 10:25:00,55.8,36.4,30.23,NE,45,0.0,1.0,48,0.00,,,0.00,WeatherCatV1.23B14,2013-12-16 18:25:00,
2013-12-16 10:30:00,55.8,36.4,30.23,NE,45,0.0,1.0,48,0.00,,,0.00,WeatherCatV1.23B14,2013-12-16 18:30:00,
2013-12-16 10:35:00,55.8,36.4,30.23,NE,45,0.0,1.0,48,0.00,,,0.00,WeatherCatV1.23B14,2013-12-16 18:35:00,
2013-12-16 10:40:00,55.8,36.4,30.23,NE,45,0.0,1.0,48,0.00,,,0.00,WeatherCatV1.23B14,2013-12-16 18:40:00,
2013-12-16 10:45:00,55.8,36.4,30.23,NE,45,0.0,1.0,48,0.00,,,0.00,WeatherCatV1.23B14,2013-12-16 18:45:00,
2013-12-16 10:50:00,55.8,36.4,30.23,NE,45,0.0,1.0,48,0.00,,,0.00,WeatherCatV1.23B14,2013-12-16 18:50:00,
2013-12-16 10:55:00,55.8,36.4,30.23,NE,45,0.0,1.0,48,0.00,,,0.00,WeatherCatV1.23B14,2013-12-16 18:55:00,
2013-12-16 11:00:00,55.8,36.4,30.23,NE,45,0.0,1.0,48,0.00,,,0.00,WeatherCatV1.23B14,2013-12-16 19:00:00,
2013-12-16 11:05:00,55.8,36.4,30.23,NE,45,0.0,1.0,48,0.00,,,0.00,WeatherCatV1.23B14,2013-12-16 19:05:00,
2013-12-16 11:10:00,55.8,36.4,30.23,NE,45,0.0,1.0,48,0.00,,,0.00,WeatherCatV1.23B14,2013-12-16 19:10:00,
2013-12-16 11:15:00,63.0,35.6,30.21,West,270,0.0,1.0,36,0.00,,,0.00,WeatherCatV1.23B14,2013-12-16 19:15:00,
2013-12-16 11:20:00,63.0,35.6,30.21,West,270,0.0,1.0,36,0.00,,,0.00,WeatherCatV1.23B14,2013-12-16 19:20:00,
2013-12-16 11:25:00,63.0,35.6,30.21,West,270,0.0,1.0,36,0.00,,,0.00,WeatherCatV1.23B14,2013-12-16 19:25:00,
2013-12-16 11:30:00,63.0,35.6,30.21,West,270,0.0,1.0,36,0.00,,,0.00,WeatherCatV1.23B14,2013-12-16 19:30:00,
2013-12-16 11:35:00,63.0,35.6,30.21,West,270,0.0,1.0,36,0.00,,,0.00,WeatherCatV1.23B14,2013-12-16 19:35:00,
2013-12-16 11:40:00,63.0,35.6,30.21,West,270,0.0,1.0,36,0.00,,,0.00,WeatherCatV1.23B14,2013-12-16 19:40:00,
2013-12-16 11:45:00,63.0,35.6,30.21,West,270,0.0,1.0,36,0.00,,,0.00,WeatherCatV1.23B14,2013-12-16 19:45:00,
2013-12-16 11:50:00,63.0,35.6,30.21,West,270,0.0,1.0,36,0.00,,,0.00,WeatherCatV1.23B14,2013-12-16 19:50:00,
2013-12-16 11:55:00,63.0,35.6,30.21,West,270,0.0,1.0,36,0.00,,,0.00,WeatherCatV1.23B14,2013-12-16 19:55:00,
2013-12-16 12:00:00,63.0,35.6,30.21,West,270,0.0,1.0,36,0.00,,,0.00,WeatherCatV1.23B14,2013-12-16 20:00:00,
2013-12-16 12:05:00,63.0,35.6,30.21,West,270,0.0,1.0,36,0.00,,,0.00,WeatherCatV1.23B14,2013-12-16 20:05:00,
2013-12-16 12:10:00,63.0,35.6,30.21,West,270,0.0,1.0,36,0.00,,,0.00,WeatherCatV1.23B14,2013-12-16 20:10:00,
2013-12-16 12:15:00,67.8,36.0,30.19,West,270,0.0,2.0,31,0.00,,,0.00,WeatherCatV1.23B14,2013-12-16 20:15:00,
2013-12-16 12:20:00,67.8,36.0,30.19,West,270,0.0,2.0,31,0.00,,,0.00,WeatherCatV1.23B14,2013-12-16 20:20:00,
2013-12-16 12:25:00,67.8,36.0,30.19,West,270,0.0,2.0,31,0.00,,,0.00,WeatherCatV1.23B14,2013-12-16 20:25:00,
2013-12-16 12:30:00,67.8,36.0,30.19,West,270,0.0,2.0,31,0.00,,,0.00,WeatherCatV1.23B14,2013-12-16 20:30:00,
2013-12-16 12:35:00,67.8,36.0,30.19,West,270,0.0,2.0,31,0.00,,,0.00,WeatherCatV1.23B14,2013-12-16 20:35:00,
2013-12-16 12:40:00,67.8,36.0,30.19,West,270,0.0,2.0,31,0.00,,,0.00,WeatherCatV1.23B14,2013-12-16 20:40:00,
2013-12-16 12:45:00,67.8,36.0,30.19,West,270,0.0,2.0,31,0.00,,,0.00,WeatherCatV1.23B14,2013-12-16 20:45:00,
2013-12-16 12:50:00,67.8,36.0,30.19,West,270,0.0,2.0,31,0.00,,,0.00,WeatherCatV1.23B14,2013-12-16 20:50:00,
2013-12-16 12:55:00,67.8,36.0,30.19,West,270,0.0,2.0,31,0.00,,,0.00,WeatherCatV1.23B14,2013-12-16 20:55:00,
2013-12-16 13:00:00,67.8,36.0,30.19,West,270,0.0,2.0,31,0.00,,,0.00,WeatherCatV1.23B14,2013-12-16 21:00:00,
2013-12-16 13:05:00,67.8,36.0,30.19,West,270,0.0,2.0,31,0.00,,,0.00,WeatherCatV1.23B14,2013-12-16 21:05:00,
2013-12-16 13:10:00,67.8,36.0,30.19,West,270,0.0,2.0,31,0.00,,,0.00,WeatherCatV1.23B14,2013-12-16 21:10:00,
2013-12-16 13:15:00,70.0,34.5,30.16,WSW,248,0.0,2.0,27,0.00,,,0.00,WeatherCatV1.23B14,2013-12-16 21:15:00,
2013-12-16 13:20:00,70.0,34.5,30.16,WSW,248,0.0,2.0,27,0.00,,,0.00,WeatherCatV1.23B14,2013-12-16 21:20:00,
2013-12-16 13:25:00,70.0,34.5,30.16,WSW,248,0.0,2.0,27,0.00,,,0.00,WeatherCatV1.23B14,2013-12-16 21:25:00,
2013-12-16 13:30:00,70.0,34.5,30.16,WSW,248,0.0,2.0,27,0.00,,,0.00,WeatherCatV1.23B14,2013-12-16 21:30:00,
2013-12-16 13:35:00,70.0,34.5,30.16,WSW,248,0.0,2.0,27,0.00,,,0.00,WeatherCatV1.23B14,2013-12-16 21:35:00,
2013-12-16 13:40:00,70.0,34.5,30.16,WSW,248,0.0,2.0,27,0.00,,,0.00,WeatherCatV1.23B14,2013-12-16 21:40:00,
2013-12-16 13:45:00,70.0,34.5,30.16,WSW,248,0.0,2.0,27,0.00,,,0.00,WeatherCatV1.23B14,2013-12-16 21:45:00,
2013-12-16 13:50:00,70.0,34.5,30.16,WSW,248,0.0,2.0,27,0.00,,,0.00,WeatherCatV1.23B14,2013-12-16 21:50:00,
2013-12-16 13:55:00,70.0,34.5,30.16,WSW,248,0.0,2.0,27,0.00,,,0.00,WeatherCatV1.23B14,2013-12-16 21:55:00,
2013-12-16 14:00:00,70.0,34.5,30.16,WSW,248,0.0,2.0,27,0.00,,,0.00,WeatherCatV1.23B14,2013-12-16 22:00:00,
2013-12-16 14:05:00,70.0,34.5,30.16,WSW,248,0.0,2.0,27,0.00,,,0.00,WeatherCatV1.23B14,2013-12-16 22:05:00,
2013-12-16 14:10:00,70.0,34.5,30.16,WSW,248,0.0,2.0,27,0.00,,,0.00,WeatherCatV1.23B14,2013-12-16 22:10:00,
2013-12-16 14:15:00,71.2,36.4,30.14,SE,135,1.0,3.0,28,0.00,,,0.00,WeatherCatV1.23B14,2013-12-16 22:15:00,
2013-12-16 14:20:00,71.2,36.4,30.14,SE,135,1.0,3.0,28,0.00,,,0.00,WeatherCatV1.23B14,2013-12-16 22:20:00,
2013-12-16 14:25:00,71.2,36.4,30.14,SE,135,1.0,3.0,28,0.00,,,0.00,WeatherCatV1.23B14,2013-12-16 22:25:00,
2013-12-16 14:30:00,71.2,36.4,30.14,SE,135,1.0,3.0,28,0.00,,,0.00,WeatherCatV1.23B14,2013-12-16 22:30:00,
2013-12-16 14:35:00,71.2,36.4,30.14,SE,135,1.0,3.0,28,0.00,,,0.00,WeatherCatV1.23B14,2013-12-16 22:35:00,
2013-12-16 14:40:00,71.2,36.4,30.14,SE,135,1.0,3.0,28,0.00,,,0.00,WeatherCatV1.23B14,2013-12-16 22:40:00,
2013-12-16 14:45:00,71.2,36.4,30.14,SE,135,1.0,3.0,28,0.00,,,0.00,WeatherCatV1.23B14,2013-12-16 22:45:00,
2013-12-16 14:50:00,71.2,36.4,30.14,SE,135,1.0,3.0,28,0.00,,,0.00,WeatherCatV1.23B14,2013-12-16 22:50:00,
2013-12-16 14:55:00,71.2,36.4,30.14,SE,135,1.0,3.0,28,0.00,,,0.00,WeatherCatV1.23B14,2013-12-16 22:55:00,
2013-12-16 15:00:00,71.2,36.4,30.14,SE,135,1.0,3.0,28,0.00,,,0.00,WeatherCatV1.23B14,2013-12-16 23:00:00,
2013-12-16 15:05:00,71.2,36.4,30.14,SE,135,1.0,3.0,28,0.00,,,0.00,WeatherCatV1.23B14,2013-12-16 23:05:00,
2013-12-16 15:10:00,71.2,36.4,30.14,SE,135,1.0,3.0,28,0.00,,,0.00,WeatherCatV1.23B14,2013-12-16 23:10:00,
2013-12-16 15:15:00,68.0,37.8,30.14,WSW,248,0.0,2.0,33,0.00,,,0.00,WeatherCatV1.23B14,2013-12-16 23:15:00,
2013-12-16 15:20:00,68.0,37.8,30.14,WSW,248,0.0,2.0,33,0.00,,,0.00,WeatherCatV1.23B14,2013-12-16 23:20:00,
2013-12-16 15:25:00,68.0,37.8,30.14,WSW,248,0.0,2.0,33,0.00,,,0.00,WeatherCatV1.23B14,2013-12-16 23:25:00,
2013-12-16 15:30:00,68.0,37.8,30.14,WSW,248,0.0,2.0,33,0.00,,,0.00,WeatherCatV1.23B14,2013-12-16 23:30:00,
2013-12-16 15:35:00,68.0,37.8,30.14,WSW,248,0.0,2.0,33,0.00,,,0.00,WeatherCatV1.23B14,2013-12-16 23:35:00,
2013-12-16 15:40:00,68.0,37.8,30.14,WSW,248,0.0,2.0,33,0.00,,,0.00,WeatherCatV1.23B14,2013-12-16 23:40:00,
2013-12-16 15:45:00,68.0,37.8,30.14,WSW,248,0.0,2.0,33,0.00,,,0.00,WeatherCatV1.23B14,2013-12-16 23:45:00,
2013-12-16 15:50:00,68.0,37.8,30.14,WSW,248,0.0,2.0,33,0.00,,,0.00,WeatherCatV1.23B14,2013-12-16 23:50:00,
2013-12-16 15:55:00,68.0,37.8,30.14,WSW,248,0.0,2.0,33,0.00,,,0.00,WeatherCatV1.23B14,2013-12-16 23:55:00,
2013-12-16 16:00:00,68.0,37.8,30.14,WSW,248,0.0,2.0,33,0.00,,,0.00,WeatherCatV1.23B14,2013-12-17 00:00:00,
2013-12-16 16:05:00,68.0,37.8,30.14,WSW,248,0.0,2.0,33,0.00,,,0.00,WeatherCatV1.23B14,2013-12-17 00:05:00,
2013-12-16 16:10:00,68.0,37.8,30.14,WSW,248,0.0,2.0,33,0.00,,,0.00,WeatherCatV1.23B14,2013-12-17 00:10:00,
2013-12-16 16:15:00,65.5,39.9,30.14,WSW,248,0.0,2.0,39,0.00,,,0.00,WeatherCatV1.23B14,2013-12-17 00:15:00,
2013-12-16 16:20:00,65.5,39.9,30.14,WSW,248,0.0,2.0,39,0.00,,,0.00,WeatherCatV1.23B14,2013-12-17 00:20:00,
2013-12-16 16:25:00,65.5,39.9,30.14,WSW,248,0.0,2.0,39,0.00,,,0.00,WeatherCatV1.23B14,2013-12-17 00:25:00,
2013-12-16 16:30:00,65.5,39.9,30.14,WSW,248,0.0,2.0,39,0.00,,,0.00,WeatherCatV1.23B14,2013-12-17 00:30:00,
2013-12-16 16:35:00,65.5,39.9,30.14,WSW,248,0.0,2.0,39,0.00,,,0.00,WeatherCatV1.23B14,2013-12-17 00:35:00,
2013-12-16 16:40:00,65.5,39.9,30.14,WSW,248,0.0,2.0,39,0.00,,,0.00,WeatherCatV1.23B14,2013-12-17 00:40:00,
2013-12-16 16:45:00,65.5,39.9,30.14,WSW,248,0.0,2.0,39,0.00,,,0.00,WeatherCatV1.23B14,2013-12-17 00:45:00,
2013-12-16 16:50:00,65.5,39.9,30.14,WSW,248,0.0,2.0,39,0.00,,,0.00,WeatherCatV1.23B14,2013-12-17 00:50:00,
2013-12-16 16:55:00,65.5,39.9,30.14,WSW,248,0.0,2.0,39,0.00,,,0.00,WeatherCatV1.23B14,2013-12-17 00:55:00,
2013-12-16 17:00:00,65.5,39.9,30.14,WSW,248,0.0,2.0,39,0.00,,,0.00,WeatherCatV1.23B14,2013-12-17 01:00:00,
2013-12-16 17:05:00,65.5,39.9,30.14,WSW,248,0.0,2.0,39,0.00,,,0.00,WeatherCatV1.23B14,2013-12-17 01:05:00,
2013-12-16 17:10:00,65.5,39.9,30.14,WSW,248,0.0,2.0,39,0.00,,,0.00,WeatherCatV1.23B14,2013-12-17 01:10:00,
2013-12-16 17:15:00,57.4,39.9,30.15,WSW,253,0.0,0.0,52,0.00,,,0.00,WeatherCatV1.23B14,2013-12-17 01:15:00,
2013-12-16 17:28:00,56.9,39.5,30.15,WSW,252,0.0,0.0,52,0.00,,,0.00,WeatherCatV1.23B14,2013-12-17 01:28:00,
2013-12-16 17:33:00,55.9,40.0,30.14,WNW,285,0.0,1.0,55,0.00,,,0.00,WeatherCatV1.23B14,2013-12-17 01:33:00,
2013-12-16 17:38:00,55.5,40.5,30.15,WNW,285,0.0,0.0,57,0.00,,,0.00,WeatherCatV1.23B14,2013-12-17 01:38:00,
2013-12-16 17:43:00,54.9,40.0,30.15,WNW,285,0.0,0.0,57,0.00,,,0.00,WeatherCatV1.23B14,2013-12-17 01:43:00,
2013-12-16 17:48:00,54.6,40.1,30.15,WNW,285,0.0,0.0,58,0.00,,,0.00,WeatherCatV1.23B14,2013-12-17 01:48:00,
2013-12-16 17:53:00,54.3,39.8,30.15,WNW,285,0.0,0.0,58,0.00,,,0.00,WeatherCatV1.23B14,2013-12-17 01:53:00,
2013-12-16 18:02:00,53.8,39.8,30.15,WNW,291,0.0,0.0,59,0.00,,,0.00,WeatherCatV1.23B14,2013-12-17 02:02:00,
2013-12-16 18:07:00,53.4,39.9,30.15,WNW,293,0.0,0.0,60,0.00,,,0.00,WeatherCatV1.23B14,2013-12-17 02:07:00,
2013-12-16 18:12:00,53.0,39.1,30.15,WNW,291,0.0,0.0,59,0.00,,,0.00,WeatherCatV1.23B14,2013-12-17 02:12:00,
2013-12-16 18:17:00,52.8,38.9,30.15,WNW,293,0.0,0.0,59,0.00,,,0.00,WeatherCatV1.23B14,2013-12-17 02:17:00,
2013-12-16 18:22:00,52.6,39.1,30.15,WNW,290,0.0,0.0,60,0.00,,,0.00,WeatherCatV1.23B14,2013-12-17 02:22:00,
2013-12-16 18:27:00,52.3,39.2,30.16,WNW,293,0.0,0.0,61,0.00,,,0.00,WeatherCatV1.23B14,2013-12-17 02:27:00,
2013-12-16 18:32:00,52.1,39.1,30.16,WNW,291,0.0,0.0,61,0.00,,,0.00,WeatherCatV1.23B14,2013-12-17 02:32:00,
2013-12-16 18:37:00,51.9,39.3,30.16,WNW,293,0.0,0.0,62,0.00,,,0.00,WeatherCatV1.23B14,2013-12-17 02:37:00,
2013-12-16 18:42:00,51.9,39.7,30.16,WNW,293,0.0,0.0,63,0.00,,,0.00,WeatherCatV1.23B14,2013-12-17 02:42:00,
2013-12-16 18:47:00,51.6,39.4,30.16,NW,308,0.0,0.0,63,0.00,,,0.00,WeatherCatV1.23B14,2013-12-17 02:47:00,
2013-12-16 18:52:00,51.6,39.4,30.16,NNW,336,0.0,0.0,63,0.00,,,0.00,WeatherCatV1.23B14,2013-12-17 02:52:00,
2013-12-16 18:57:00,51.6,39.4,30.16,NNW,336,0.0,0.0,63,0.00,,,0.00,WeatherCatV1.23B14,2013-12-17 02:57:00,
2013-12-16 19:02:00,51.7,39.1,30.16,NNW,335,0.0,0.0,62,0.00,,,0.00,WeatherCatV1.23B14,2013-12-17 03:02:00,
2013-12-16 19:07:00,52.1,39.1,30.17,NNW,336,0.0,0.0,61,0.00,,,0.00,WeatherCatV1.23B14,2013-12-17 03:07:00,
2013-12-16 19:12:00,52.2,39.2,30.17,NNW,336,0.0,0.0,61,0.00,,,0.00,WeatherCatV1.23B14,2013-12-17 03:12:00,
2013-12-16 19:17:00,51.9,39.3,30.17,NNW,336,0.0,0.0,62,0.00,,,0.00,WeatherCatV1.23B14,2013-12-17 03:17:00,
2013-12-16 19:22:00,51.5,38.9,30.17,NNW,335,0.0,0.0,62,0.00,,,0.00,WeatherCatV1.23B14,2013-12-17 03:22:00,
2013-12-16 19:27:00,51.2,39.0,30.17,NNW,335,0.0,0.0,63,0.00,,,0.00,WeatherCatV1.23B14,2013-12-17 03:27:00,
2013-12-16 19:32:00,51.1,39.3,30.17,NNW,336,0.0,0.0,64,0.00,,,0.00,WeatherCatV1.23B14,2013-12-17 03:32:00,
2013-12-16 19:37:00,50.7,39.0,30.17,NNW,335,0.0,0.0,64,0.00,,,0.00,WeatherCatV1.23B14,2013-12-17 03:37:00,
2013-12-16 19:42:00,50.9,39.2,30.17,NNW,336,0.0,0.0,64,0.00,,,0.00,WeatherCatV1.23B14,2013-12-17 03:42:00,
2013-12-16 19:47:00,51.3,39.1,30.17,NNW,335,0.0,0.0,63,0.00,,,0.00,WeatherCatV1.23B14,2013-12-17 03:47:00,
2013-12-16 19:52:00,51.1,39.3,30.17,NNW,336,0.0,0.0,64,0.00,,,0.00,WeatherCatV1.23B14,2013-12-17 03:52:00,
2013-12-16 19:57:00,50.4,39.1,30.17,North,351,0.0,0.0,65,0.00,,,0.00,WeatherCatV1.23B14,2013-12-17 03:57:00,
2013-12-16 20:02:00,50.0,39.1,30.17,North,351,0.0,0.0,66,0.00,,,0.00,WeatherCatV1.23B14,2013-12-17 04:02:00,
2013-12-16 20:07:00,49.8,39.3,30.17,NNE,12,0.0,0.0,67,0.00,,,0.00,WeatherCatV1.23B14,2013-12-17 04:07:00,
2013-12-16 20:12:00,49.3,39.2,30.17,NNE,12,0.0,0.0,68,0.00,,,0.00,WeatherCatV1.23B14,2013-12-17 04:12:00,
2013-12-16 20:17:00,48.7,39.0,30.17,NNE,12,0.0,1.0,69,0.00,,,0.00,WeatherCatV1.23B14,2013-12-17 04:17:00,
2013-12-16 20:22:00,48.7,39.4,30.17,NNE,12,0.0,0.0,70,0.00,,,0.00,WeatherCatV1.23B14,2013-12-17 04:22:00,
2013-12-16 20:27:00,49.1,39.0,30.17,NNE,12,0.0,1.0,68,0.00,,,0.00,WeatherCatV1.23B14,2013-12-17 04:27:00,
2013-12-16 20:32:00,49.6,39.1,30.17,NNE,12,0.0,0.0,67,0.00,,,0.00,WeatherCatV1.23B14,2013-12-17 04:32:00,
2013-12-16 20:37:00,49.5,38.6,30.17,NNE,12,0.0,0.0,66,0.00,,,0.00,WeatherCatV1.23B14,2013-12-17 04:37:00,
2013-12-16 20:42:00,49.1,38.6,30.17,NNE,13,0.0,0.0,67,0.00,,,0.00,WeatherCatV1.23B14,2013-12-17 04:42:00,
2013-12-16 20:47:00,48.4,38.7,30.17,NNE,12,0.0,0.0,69,0.00,,,0.00,WeatherCatV1.23B14,2013-12-17 04:47:00,
2013-12-16 20:52:00,48.1,38.4,30.17,NNE,12,0.0,1.0,69,0.00,,,0.00,WeatherCatV1.23B14,2013-12-17 04:52:00,
2013-12-16 20:57:00,48.5,38.4,30.17,NNE,13,0.0,1.0,68,0.00,,,0.00,WeatherCatV1.23B14,2013-12-17 04:57:00,
2013-12-16 21:01:00,48.9,38.0,30.17,NNE,13,0.0,0.0,66,0.00,,,0.00,WeatherCatV1.23B14,2013-12-17 05:01:00,
2013-12-16 21:02:00,48.9,38.0,30.18,NNE,12,0.0,0.0,66,0.00,,,0.00,WeatherCatV1.23B14,2013-12-17 05:02:00,
2013-12-16 21:07:00,49.2,37.5,30.18,NNE,12,0.0,0.0,64,0.00,,,0.00,WeatherCatV1.23B14,2013-12-17 05:07:00,
2013-12-16 21:12:00,49.5,38.2,30.17,NNE,13,0.0,1.0,65,0.00,,,0.00,WeatherCatV1.23B14,2013-12-17 05:12:00,
2013-12-16 21:17:00,49.8,37.3,30.18,NNE,13,0.0,0.0,62,0.00,,,0.00,WeatherCatV1.23B14,2013-12-17 05:17:00,
2013-12-16 21:22:00,50.2,37.3,30.18,NNE,13,0.0,1.0,61,0.00,,,0.00,WeatherCatV1.23B14,2013-12-17 05:22:00,
2013-12-16 21:27:00,50.1,37.2,30.18,NNE,13,0.0,0.0,61,0.00,,,0.00,WeatherCatV1.23B14,2013-12-17 05:27:00,
2013-12-16 21:32:00,50.0,37.5,30.18,NNE,13,0.0,1.0,62,0.00,,,0.00,WeatherCatV1.23B14,2013-12-17 05:32:00,
2013-12-16 21:37:00,49.7,37.2,30.18,NNE,13,0.0,0.0,62,0.00,,,0.00,WeatherCatV1.23B14,2013-12-17 05:37:00,
2013-12-16 21:42:00,49.8,36.5,30.18,NNE,24,1.0,1.0,60,0.00,,,0.00,WeatherCatV1.23B14,2013-12-17 05:42:00,
2013-12-16 21:47:00,50.3,36.1,30.18,NNE,25,0.0,0.0,58,0.00,,,0.00,WeatherCatV1.23B14,2013-12-17 05:47:00,
2013-12-16 21:52:00,50.1,36.3,30.18,NNE,25,1.0,1.0,59,0.00,,,0.00,WeatherCatV1.23B14,2013-12-17 05:52:00,
2013-12-16 21:57:00,49.9,36.2,30.18,NNE,25,0.0,1.0,59,0.00,,,0.00,WeatherCatV1.23B14,2013-12-17 05:57:00,
2013-12-16 22:02:00,49.9,36.2,30.18,NNE,24,0.0,1.0,59,0.00,,,0.00,WeatherCatV1.23B14,2013-12-17 06:02:00,
2013-12-16 22:07:00,49.8,36.9,30.18,NNE,24,0.0,2.0,61,0.00,,,0.00,WeatherCatV1.23B14,2013-12-17 06:07:00,
2013-12-16 22:12:00,49.6,35.9,30.18,NNE,25,0.0,1.0,59,0.00,,,0.00,WeatherCatV1.23B14,2013-12-17 06:12:00,
2013-12-16 22:17:00,49.5,35.3,30.18,NNE,25,0.0,0.0,58,0.00,,,0.00,WeatherCatV1.23B14,2013-12-17 06:17:00,
2013-12-16 22:22:00,49.5,34.9,30.18,NNE,24,0.0,1.0,57,0.00,,,0.00,WeatherCatV1.23B14,2013-12-17 06:22:00,
2013-12-16 22:27:00,49.8,34.7,30.19,NNE,25,0.0,1.0,56,0.00,,,0.00,WeatherCatV1.23B14,2013-12-17 06:27:00,
2013-12-16 22:32:00,50.0,34.5,30.19,NNE,24,0.0,1.0,55,0.00,,,0.00,WeatherCatV1.23B14,2013-12-17 06:32:00,
2013-12-16 22:37:00,50.2,34.7,30.19,NNE,24,0.0,0.0,55,0.00,,,0.00,WeatherCatV1.23B14,2013-12-17 06:37:00,
2013-12-16 22:42:00,50.1,34.6,30.19,NNE,24,0.0,1.0,55,0.00,,,0.00,WeatherCatV1.23B14,2013-12-17 06:42:00,
2013-12-16 22:47:00,49.9,33.9,30.18,NNE,24,0.0,0.0,54,0.00,,,0.00,WeatherCatV1.23B14,2013-12-17 06:47:00,
2013-12-16 22:52:00,49.9,33.9,30.19,NNE,24,0.0,0.0,54,0.00,,,0.00,WeatherCatV1.23B14,2013-12-17 06:52:00,
2013-12-16 22:57:00,49.6,34.1,30.18,NNE,25,0.0,1.0,55,0.00,,,0.00,WeatherCatV1.23B14,2013-12-17 06:57:00,
2013-12-16 23:02:00,49.3,34.3,30.18,NNE,25,0.0,0.0,56,0.00,,,0.00,WeatherCatV1.23B14,2013-12-17 07:02:00,
2013-12-16 23:07:00,49.4,33.5,30.18,NNE,25,0.0,0.0,54,0.00,,,0.00,WeatherCatV1.23B14,2013-12-17 07:07:00,
2013-12-16 23:12:00,49.6,33.2,30.18,NNE,25,0.0,0.0,53,0.00,,,0.00,WeatherCatV1.23B14,2013-12-17 07:12:00,
2013-12-16 23:17:00,49.6,33.2,30.18,NNE,24,0.0,0.0,53,0.00,,,0.00,WeatherCatV1.23B14,2013-12-17 07:17:00,
2013-12-16 23:22:00,49.6,32.7,30.18,NNE,24,0.0,0.0,52,0.00,,,0.00,WeatherCatV1.23B14,2013-12-17 07:22:00,
2013-12-16 23:27:00,49.8,32.4,30.18,NNE,24,0.0,0.0,51,0.00,,,0.00,WeatherCatV1.23B14,2013-12-17 07:27:00,
2013-12-16 23:32:00,50.0,32.1,30.18,NNE,26,0.0,1.0,50,0.00,,,0.00,WeatherCatV1.23B14,2013-12-17 07:32:00,
2013-12-16 23:37:00,50.6,31.6,30.18,NNE,26,0.0,0.0,48,0.00,,,0.00,WeatherCatV1.23B14,2013-12-17 07:37:00,
2013-12-16 23:42:00,50.8,31.3,30.18,NNE,26,0.0,1.0,47,0.00,,,0.00,WeatherCatV1.23B14,2013-12-17 07:42:00,
2013-12-16 23:47:00,51.0,31.5,30.18,NNE,26,0.0,0.0,47,0.00,,,0.00,WeatherCatV1.23B14,2013-12-17 07:47:00,
2013-12-16 23:52:00,50.6,31.1,30.18,NNE,26,0.0,0.0,47,0.00,,,0.00,WeatherCatV1.23B14,2013-12-17 07:52:00,
2013-12-16 23:57:00,50.6,30.6,30.18,NNE,26,1.0,1.0,46,0.00,,,0.00,WeatherCatV1.23B14,2013-12-17 07:57:00,